Date String (YYYY-MM-DD hh:mm:ss) UTC,Instrument flags,Ambient pressure (hPa),Sample flow (lpm),Bypass flow (lpm),Sample temperature (°C),Ambient temperature (°C),ASC tube jacket temperature (°C),LED temperature (°C),Box temperature (°C),Sample RH (%),Span deviation,Mass concentration (μg/m³),Mass concentration (μg/m³),Mass concentration (μg/m³)
DateTimeUTC,F1_M11,P_M11,Q1_M11,Q2_M11,T1_M11,T2_M11,T3_M11,T4_M11,T5_M11,U1_M11,ZSPAN_M11,X2_M11,X0_M11,X1_M11
2023-03-07 18:00:00,,0826.1,5.00,0.00,22.2,22.6,00.0,30.8,24.1,16.1,0000.0,0005.27,0007.54,0005.14
2023-03-07 18:01:00,,0826.0,5.00,0.00,22.3,23.0,00.0,30.9,24.3,16.2,0000.0,0005.27,0007.55,0005.14
2023-03-07 18:02:00,,0826.0,4.99,0.00,22.3,22.5,00.0,30.9,24.2,16.2,0000.0,0005.27,0007.64,0005.15
2023-03-07 18:03:00,,0826.1,5.02,0.00,22.3,22.0,00.0,31.0,24.1,16.1,0000.0,0005.29,0008.12,0005.15
2023-03-07 18:04:00,,0826.1,5.00,0.00,22.3,21.6,00.0,31.0,24.0,16.1,0000.0,0005.29,0008.14,0005.16
2023-03-07 18:05:00,,0826.1,4.99,0.00,22.3,21.3,00.0,31.0,24.0,16.2,0000.0,0005.31,0008.19,0005.16
2023-03-07 18:06:00,,0826.1,4.99,0.00,22.3,21.1,00.0,31.0,24.0,16.3,0000.0,0005.34,0008.22,0005.17
2023-03-07 18:07:00,,0826.1,5.00,0.00,22.3,20.9,00.0,31.0,23.9,16.3,0000.0,0005.36,0008.33,0005.17
2023-03-07 18:08:00,,0826.0,5.00,0.00,22.2,20.7,00.0,31.0,23.8,16.3,0000.0,0005.34,0008.30,0005.15
2023-03-07 18:09:00,,0826.0,5.00,0.00,22.2,20.6,00.0,31.0,23.7,16.2,0000.0,0005.31,0008.21,0005.13
2023-03-07 18:10:00,,0825.9,5.00,0.00,22.1,20.5,00.0,31.0,23.8,16.2,0000.0,0005.29,0008.16,0005.11
2023-03-07 18:11:00,,0825.9,5.00,0.00,22.1,20.5,00.0,30.9,23.7,16.2,0000.0,0005.28,0008.13,0005.10
2023-03-07 18:12:00,,0825.9,5.00,0.00,22.1,20.4,00.0,30.9,23.7,16.3,0000.0,0005.26,0008.11,0005.09
2023-03-07 18:13:00,,0825.9,4.99,0.00,22.1,20.3,00.0,30.9,23.7,16.3,0000.0,0005.27,0008.23,0005.08
2023-03-07 18:14:00,,0825.9,5.00,0.00,22.1,20.3,00.0,30.9,23.7,16.1,0000.0,0005.26,0007.69,0005.07
2023-03-07 18:15:00,,0826.0,5.00,0.00,22.1,20.2,00.0,30.9,23.6,15.9,0000.0,0005.25,0007.71,0005.06
2023-03-07 18:16:00,,0825.9,5.00,0.00,22.1,20.7,00.0,30.9,23.7,15.8,0000.0,0005.22,0007.66,0005.04
2023-03-07 18:17:00,,0826.0,4.97,0.00,22.2,22.0,00.0,30.9,24.0,15.8,0000.0,0005.18,0007.66,0005.01
2023-03-07 18:18:00,,0825.9,4.97,0.00,22.3,22.7,00.0,30.9,24.2,15.5,0000.0,0005.15,0007.54,0004.99
2023-03-07 18:19:00,,0825.9,4.98,0.00,22.3,22.4,00.0,31.0,24.2,15.4,0000.0,0005.13,0007.52,0004.97
2023-03-07 18:20:00,,0825.9,4.98,0.00,22.3,21.9,00.0,31.0,24.1,15.4,0000.0,0005.16,0007.57,0004.99
2023-03-07 18:21:00,,0825.8,5.01,0.00,22.3,21.6,00.0,31.0,24.1,15.5,0000.0,0005.20,0007.66,0005.00
2023-03-07 18:22:00,,0826.1,5.00,0.00,22.3,21.4,00.0,31.0,24.0,15.6,0000.0,0005.23,0007.72,0005.01
2023-03-07 18:23:00,,0825.9,5.00,0.00,22.3,21.2,00.0,31.0,24.0,15.8,0000.0,0005.28,0007.81,0005.04
2023-03-07 18:24:00,,0826.0,5.01,0.00,22.3,21.0,00.0,31.0,24.0,15.9,0000.0,0005.28,0007.72,0005.05
2023-03-07 18:25:00,,0825.7,5.00,0.00,22.3,20.9,00.0,31.0,24.0,15.6,0000.0,0005.30,0007.76,0005.07
2023-03-07 18:26:00,,0825.8,5.00,0.00,22.3,20.8,00.0,31.0,23.9,15.5,0000.0,0005.31,0007.74,0005.08
2023-03-07 18:27:00,,0826.2,4.99,0.00,22.3,20.7,00.0,31.0,23.9,15.5,0000.0,0005.33,0007.76,0005.10
2023-03-07 18:28:00,,0826.0,4.99,0.00,22.2,20.6,00.0,31.0,23.8,15.5,0000.0,0005.36,0007.71,0005.12
2023-03-07 18:29:00,,0825.8,5.01,0.00,22.2,20.5,00.0,31.0,23.8,15.7,0000.0,0005.39,0007.76,0005.14
2023-03-07 18:30:00,,0825.6,5.03,0.00,22.2,20.5,00.0,31.0,23.8,16.0,0000.0,0005.45,0007.83,0005.18
2023-03-07 18:31:00,,0825.6,4.99,0.00,22.2,20.4,00.0,31.0,23.8,16.0,0000.0,0005.50,0007.88,0005.22
2023-03-07 18:32:00,,0825.6,5.00,0.00,22.1,20.4,00.0,31.0,23.8,15.6,0000.0,0005.49,0007.85,0005.22
2023-03-07 18:33:00,,0825.7,5.01,0.00,22.2,21.5,00.0,30.9,24.0,15.5,0000.0,0005.47,0007.78,0005.23
2023-03-07 18:34:00,,0825.7,5.01,0.00,22.3,22.7,00.0,31.0,24.3,15.2,0000.0,0005.43,0007.66,0005.22
2023-03-07 18:35:00,,0825.7,5.05,0.00,22.5,23.4,00.0,31.0,24.5,15.3,0000.0,0005.43,0007.65,0005.23
2023-03-07 18:36:00,,0825.6,5.01,0.00,22.5,22.9,00.0,31.1,24.4,15.1,0000.0,0005.44,0007.65,0005.24
2023-03-07 18:37:00,,0825.6,4.99,0.00,22.5,22.5,00.0,31.1,24.4,15.1,0000.0,0005.46,0007.65,0005.27
2023-03-07 18:38:00,,0825.6,4.98,0.00,22.5,22.1,00.0,31.1,24.3,15.2,0000.0,0005.49,0007.66,0005.31
2023-03-07 18:39:00,,0825.5,5.00,0.00,22.5,21.8,00.0,31.1,24.2,15.4,0000.0,0005.51,0007.68,0005.33
2023-03-07 18:40:00,,0825.6,5.00,0.00,22.5,21.5,00.0,31.2,24.2,15.3,0000.0,0005.52,0007.66,0005.36
2023-03-07 18:41:00,,0825.6,4.99,0.00,22.5,21.2,00.0,31.2,24.1,14.9,0000.0,0005.52,0007.63,0005.38
2023-03-07 18:42:00,,0825.6,5.00,0.00,22.5,21.1,00.0,31.2,24.1,14.9,0000.0,0005.52,0007.61,0005.39
2023-03-07 18:43:00,,0825.5,5.01,0.00,22.5,21.0,00.0,31.2,24.1,15.2,0000.0,0005.54,0007.63,0005.41
2023-03-07 18:44:00,,0825.6,5.01,0.00,22.4,21.0,00.0,31.2,24.1,15.3,0000.0,0005.56,0007.64,0005.44
2023-03-07 18:45:00,,0825.5,5.00,0.00,22.4,20.9,00.0,31.2,24.1,15.4,0000.0,0005.61,0007.78,0005.46
2023-03-07 18:46:00,,0825.4,5.00,0.00,22.4,20.7,00.0,31.2,24.0,15.1,0000.0,0005.64,0007.82,0005.49
2023-03-07 18:47:00,,0825.4,5.00,0.00,22.4,20.6,00.0,31.1,23.9,15.0,0000.0,0005.66,0007.87,0005.50
2023-03-07 18:48:00,,0825.4,4.99,0.00,22.3,20.5,00.0,31.1,23.9,14.9,0000.0,0005.68,0007.87,0005.51
2023-03-07 18:49:00,,0825.5,5.00,0.00,22.3,20.5,00.0,31.1,23.9,15.0,0000.0,0005.67,0007.86,0005.50
2023-03-07 18:50:00,,0825.5,5.03,0.00,22.3,20.5,00.0,31.1,23.9,14.8,0000.0,0005.67,0007.87,0005.48
2023-03-07 18:51:00,,0825.5,5.02,0.00,22.3,20.4,00.0,31.1,23.9,14.7,0000.0,0005.69,0007.90,0005.48
2023-03-07 18:52:00,,0825.5,4.99,0.00,22.2,20.4,00.0,31.1,23.9,14.8,0000.0,0005.67,0007.87,0005.46
2023-03-07 18:53:00,,0825.5,4.99,0.00,22.2,20.4,00.0,31.1,23.9,15.2,0000.0,0005.66,0007.90,0005.46
2023-03-07 18:54:00,,0825.5,5.00,0.00,22.2,20.5,00.0,31.0,23.9,15.8,0000.0,0005.67,0007.93,0005.47
2023-03-07 18:55:00,,0825.5,5.01,0.00,22.3,21.6,00.0,31.0,24.1,15.1,0000.0,0005.68,0008.00,0005.46
2023-03-07 18:56:00,,0825.5,4.97,0.00,22.4,22.7,00.0,31.0,24.4,14.7,0000.0,0005.70,0007.99,0005.46
2023-03-07 18:57:00,,0825.4,4.99,0.00,22.5,22.5,00.0,31.1,24.3,14.1,0000.0,0005.67,0007.94,0005.44
2023-03-07 18:58:00,,0825.5,4.97,0.00,22.5,22.1,00.0,31.1,24.2,14.4,0000.0,0005.65,0007.88,0005.43
2023-03-07 18:59:00,,0825.5,4.98,0.00,22.5,21.8,00.0,31.1,24.2,15.1,0000.0,0005.63,0007.84,0005.42
